| time (UTC) | temp C | wind direction | speed KPH | gust KPH | rain 1hr cm | rain 24hr cm | rain mn cm | humidity % | barometer mb |
| 20260504081525 | 5 | 200 | 0.0 | 6.4 | 0.00 | 0.00 | 0.00 | 86 | 1006.2 |
| 20260504044546 | 5 | 238 | 1.6 | 11.3 | 0.00 | 0.00 | 0.00 | 60 | 1007.2 |
| 20260504043043 | 5 | 342 | 0.0 | 9.7 | 0.00 | 0.00 | 0.00 | 57 | 1007.4 |
| 20260504041540 | 5 | 265 | 0.0 | 9.7 | 0.00 | 0.00 | 0.00 | 54 | 1007.6 |
| 20260504040059 | 5 | 250 | 0.0 | 8.0 | 0.00 | 0.00 | 0.00 | 53 | 1007.5 |
| 20260504034537 | 5 | 273 | 1.6 | 8.0 | 0.00 | 0.00 | 0.00 | 52 | 1007.4 |
| 20260504033037 | 4 | 219 | 0.0 | 0.0 | 0.00 | 0.00 | 0.00 | 52 | 1007.3 |
| 20260504031537 | 4 | 232 | 0.0 | 4.8 | 0.00 | 0.00 | 0.00 | 52 | 1007.4 |
| 20260504030035 | 4 | 244 | 0.0 | 0.0 | 0.00 | 0.00 | 0.00 | 52 | 1007.5 |
| 20260504024536 | 4 | 286 | 0.0 | 1.6 | 0.00 | 0.00 | 0.00 | 53 | 1007.5 |
| 20260504023034 | 5 | 290 | 0.0 | 0.0 | 0.00 | 0.00 | 0.00 | 53 | 1007.6 |
| 20260504021534 | 4 | 280 | 0.0 | 0.0 | 0.00 | 0.00 | 0.00 | 54 | 1007.7 |
| 20260504020033 | 4 | 297 | 0.0 | 1.6 | 0.00 | 0.00 | 0.00 | 55 | 1007.6 |
| 20260504014532 | 5 | 268 | 0.0 | 6.4 | 0.00 | 0.00 | 0.00 | 56 | 1007.7 |
| 20260504013033 | 4 | 284 | 0.0 | 4.8 | 0.00 | 0.00 | 0.00 | 56 | 1007.6 |
| 20260504011531 | 4 | 300 | 1.6 | 6.4 | 0.00 | 0.00 | 0.00 | 57 | 1007.5 |
| 20260504010031 | 4 | 283 | 0.0 | 9.7 | 0.00 | 0.00 | 0.00 | 58 | 1007.4 |
| 20260504004541 | 4 | 299 | 0.0 | 1.6 | 0.00 | 0.00 | 0.00 | 58 | 1007.3 |
| 20260504003029 | 5 | 298 | 0.0 | 6.4 | 0.00 | 0.00 | 0.00 | 58 | 1007.2 |
| 20260504001529 | 5 | 275 | 0.0 | 0.0 | 0.00 | 0.00 | 0.00 | 57 | 1007.1 |
| 20260504000028 | 5 | 298 | 0.0 | 0.0 | 0.00 | 0.00 | 0.00 | 56 | 1007.0 |
| 20260503234529 | 5 | 310 | 0.0 | 6.4 | 0.00 | 0.00 | 0.00 | 54 | 1006.9 |
| 20260503233027 | 6 | 313 | 0.0 | 6.4 | 0.00 | 0.00 | 0.00 | 54 | 1006.9 |
| 20260503231527 | 6 | 316 | 0.0 | 1.6 | 0.00 | 0.00 | 0.00 | 55 | 1006.9 |
| 20260503230026 | 6 | 302 | 0.0 | 4.8 | 0.00 | 0.00 | 0.00 | 54 | 1006.9 |
| 20260503224526 | 6 | 258 | 0.0 | 6.4 | 0.00 | 0.00 | 0.00 | 54 | 1006.9 |
| 20260503223025 | 6 | 306 | 0.0 | 8.0 | 0.00 | 0.00 | 0.00 | 51 | 1006.7 |
| 20260503221526 | 6 | 310 | 0.0 | 0.0 | 0.00 | 0.00 | 0.00 | 53 | 1006.8 |
| 20260503220025 | 7 | 284 | 0.0 | 4.8 | 0.00 | 0.00 | 0.00 | 52 | 1006.7 |
| 20260503214523 | 6 | 328 | 1.6 | 8.0 | 0.00 | 0.00 | 0.00 | 53 | 1006.7 |
| 20260503213023 | 6 | 244 | 0.0 | 8.0 | 0.00 | 0.00 | 0.00 | 55 | 1006.8 |
| 20260503211522 | 6 | 264 | 0.0 | 6.4 | 0.00 | 0.00 | 0.00 | 56 | 1006.7 |
| 20260503210022 | 6 | 284 | 0.0 | 4.8 | 0.00 | 0.00 | 0.00 | 56 | 1006.5 |
| 20260503204527 | 6 | 284 | 0.0 | 11.3 | 0.00 | 0.00 | 0.00 | 54 | 1006.6 |
| 20260503203020 | 6 | 292 | 0.0 | 6.4 | 0.00 | 0.00 | 0.00 | 56 | 1006.5 |
| 20260503201519 | 6 | 311 | 0.0 | 4.8 | 0.00 | 0.00 | 0.00 | 57 | 1006.6 |
| 20260503200020 | 7 | 311 | 0.0 | 6.4 | 0.00 | 0.00 | 0.00 | 54 | 1006.7 |
| 20260503194517 | 6 | 323 | 1.6 | 12.9 | 0.00 | 0.00 | 0.00 | 60 | 1006.8 |
| 20260503193034 | 6 | 281 | 1.6 | 9.7 | 0.00 | 0.00 | 0.00 | 55 | 1006.9 |
| 20260503191513 | 5 | 329 | 0.0 | 11.3 | 0.00 | 0.00 | 0.00 | 61 | 1007.1 |
| 20260503190004 | 5 | 322 | 1.6 | 9.7 | 0.00 | 0.00 | 0.00 | 58 | 1007.0 |
| 20260503184506 | 5 | 288 | 0.0 | 9.7 | 0.00 | 0.00 | 0.00 | 56 | 1007.0 |
| 20260503183003 | 6 | 315 | 0.0 | 11.3 | 0.00 | 0.00 | 0.00 | 56 | 1007.0 |
| 20260503181503 | 6 | 290 | 0.0 | 6.4 | 0.00 | 0.00 | 0.00 | 55 | 1006.9 |
| 20260503180115 | 5 | 292 | 0.0 | 9.7 | 0.00 | 0.00 | 0.00 | 56 | 1007.0 |
| 20260503174600 | 6 | 261 | 0.0 | 9.7 | 0.00 | 0.00 | 0.00 | 54 | 1007.0 |
| 20260503173102 | 6 | 302 | 1.6 | 11.3 | 0.00 | 0.00 | 0.00 | 53 | 1007.0 |
| 20260503171559 | 6 | 299 | 1.6 | 12.9 | 0.00 | 0.00 | 0.00 | 53 | 1007.0 |